STARLINK-35390, 65796

Orbit data source: Space-Track

STARLINK-35390, 65796 is a payload satellite owned by SpaceX/Seattle (US) in SSO that was launched on Fri, 26 Sep 2025 UTC via an FALCON 9 launch vehicle from the Air Force Western Test Range (AFWTR). Payload-class satellites include a variety of spacecraft equipped with specific instruments for various scientific and technological missions. These include communications satellites like Starlink; space stations such as the ISS; scientific satellites like the Hubble; Earth observation satellites from companies like Planet Labs, Umbra, and HawkEye 360; GPS; miniature CubeSats for education and research; and military/defense satellites.

Loading next visibility...
Identifier
65796, 2025-218F
Orbit
SSO
Country
Flag of USUS
Related business
Manufacturer
SpaceX/Seattle
Mission
Operational Commercial Communications
Bus & Motor
STARLINK V2MO, Unknown motor
Mass
575 kg wet, ~530 kg dry
Launch date (UTC)
2025-09-26 (5 months ago)
Launch vehicle
FALCON 9
Launch site
Air Force Western Test Range (AFWTR)
Object type
Payload
Rocket body
Debris
Shape & HBR
Box + 2 Pan, 17.7 m
Radar Cross Section
36.964 m²

Expand to show TLE details & history
Last TLE update: 16 hours ago

TLE from 16 hours ago
0 STARLINK-35390
1 65796U 25218F   26062.18999534  .00004061  00000-0  28543-3 0  9991
2 65796  97.6008 286.5774 0001963  81.2652 278.8797 15.05653945 23991
Epoch: 2026-03-03T04:33Z
TLE epoch observation values (Epoch: 2026-03-03T04:33:35.597Z)
Latitude
-0.00002°
Longitude
57.20647°
Altitude
552.355 km
Speed
7.586 km/s
True Right ascension
19h 06m 18s
True Declination
0° 00' 00"
Sunlit
Object was in daylight at epoch
Visualization orbit readout
Latitude
Unknown
Longitude
Unknown
Altitude
Unknown
Speed
Unknown
Apparent Right ascension
Unknown
Apparent Declination
Unknown
Sunlit
N/A
Visualization observer readout
Local Sidereal Time
00:33:57
Azimuth
Unknown
Elevation
Unknown
Doppler factor
Unknown
Orbital elements
Apogee altitude
547.852 km
Perigee altitude
545.133 km
Semi-major axis
6,924.629 km
Eccentricity
0.0002
Inclination
97.6008°
RAAN
286.5774°
Arg. of periapsis
81.2652°
True anomaly
278.85747°
Mean anomaly
278.8797°
Eccentric anomaly
278.86859°
Mean motion
3.76659 °/min
Orbital period
95.58 mins
BSTAR
0.00028543
Loading maneuver chart data...
Computing Atmospheric mass density...
Loading historical data...
Loading historical data...
Loading historical data...
Loading historical data...
Loading historical data...
Loading historical data...
Loading historical data...

Documentation

Showing up to 5 results
|